Location: Unspecified
(33.6682°S, 0.0000°E)
Time: 04:09:18
(UTC+00:00)

Tiros 1 despin weight - Pass Details

Date: 17 June 2019
Orbit: 594 x 642 km, 48.2° (Epoch: 21 July)

Event Time Altitude Azimuth Distance (km) Brightness Sun altitude
Rises 20:39:38 0° 248° (WSW) 2,949 ? -45.0°
Enters shadow 20:40:49 - 254° (WSW) 2,557 ? -45.3°
Reaches altitude 10° 20:42:36 10° 267° (W) 2,025 - -45.7°
Maximum altitude 20:45:45 18° 309° (NW) 1,546 - -46.3°
Drops below altitude 10° 20:48:51 10° 352° (N) 1,989 - -47.0°
Sets 20:51:45 0° 11° (N) 2,876 - -47.6°
